Time,TemperatureF,DewpointF,PressureIn,WindDirection,WindDirectionDegrees,WindSpeedMPH,WindSpeedGustMPH,Humidity,HourlyPrecipIn,Conditions,Clouds,dailyrainin,SoftwareType,DateUTC
2013-06-23 00:00:00,59.8,42.1,29.72,North,10,0.0,0.0,52,0.00,CLR,,0.00,WeatherDisplay:10.37,2013-06-23 08:00:00,
2013-06-23 00:10:00,59.7,43.0,29.72,North,356,0.0,0.0,54,0.00,CLR,,0.00,WeatherDisplay:10.37,2013-06-23 08:10:00,
2013-06-23 00:15:00,59.5,41.4,29.72,NNW,342,0.0,0.0,51,0.00,CLR,,0.00,WeatherDisplay:10.37,2013-06-23 08:15:00,
2013-06-23 00:20:00,59.2,41.6,29.72,NNW,331,0.0,0.0,52,0.00,CLR,,0.00,WeatherDisplay:10.37,2013-06-23 08:20:00,
2013-06-23 00:25:00,59.2,42.5,29.72,NNW,338,0.0,0.0,54,0.00,CLR,,0.00,WeatherDisplay:10.37,2013-06-23 08:25:00,
2013-06-23 00:30:00,59.0,41.9,29.72,North,6,0.0,0.0,53,0.00,CLR,,0.00,WeatherDisplay:10.37,2013-06-23 08:30:00,
2013-06-23 00:40:00,58.5,40.9,29.72,NNE,25,0.0,0.0,52,0.00,CLR,,0.00,WeatherDisplay:10.37,2013-06-23 08:40:00,
2013-06-23 00:45:00,58.3,41.2,29.72,North,7,0.0,0.0,53,0.00,CLR,,0.00,WeatherDisplay:10.37,2013-06-23 08:45:00,
2013-06-23 00:55:00,58.3,42.6,29.72,NNE,12,0.0,0.0,56,0.00,CLR,,0.00,WeatherDisplay:10.37,2013-06-23 08:55:00,
2013-06-23 01:00:00,58.3,41.7,29.72,North,0,0.0,0.0,54,0.00,CLR,,0.00,WeatherDisplay:10.37,2013-06-23 09:00:00,
2013-06-23 01:15:00,58.6,42.0,29.72,NNW,339,0.0,0.0,54,0.00,CLR,,0.00,WeatherDisplay:10.37,2013-06-23 09:15:00,
2013-06-23 01:25:00,57.7,43.0,29.72,NW,314,0.0,0.0,58,0.00,CLR,,0.00,WeatherDisplay:10.37,2013-06-23 09:25:00,
2013-06-23 01:30:00,57.3,40.8,29.72,WNW,292,0.0,0.0,54,0.00,CLR,,0.00,WeatherDisplay:10.37,2013-06-23 09:30:00,
2013-06-23 01:40:00,56.6,42.0,29.72,WNW,285,0.0,0.0,58,0.00,CLR,,0.00,WeatherDisplay:10.37,2013-06-23 09:40:00,
2013-06-23 01:45:00,56.3,41.7,29.72,NW,315,0.0,0.0,58,0.00,CLR,,0.00,WeatherDisplay:10.37,2013-06-23 09:45:00,
2013-06-23 01:50:00,56.1,42.0,29.73,NNE,17,0.0,0.0,59,0.00,CLR,,0.00,WeatherDisplay:10.37,2013-06-23 09:50:00,
2013-06-23 01:55:00,56.1,41.5,29.72,NNE,13,0.0,0.0,58,0.00,CLR,,0.00,WeatherDisplay:10.37,2013-06-23 09:55:00,
2013-06-23 02:00:00,55.9,40.5,29.72,North,1,0.0,0.0,56,0.00,CLR,,0.00,WeatherDisplay:10.37,2013-06-23 10:00:00,
2013-06-23 02:10:00,55.6,41.0,29.72,NNE,18,0.0,0.0,58,0.00,CLR,,0.00,WeatherDisplay:10.37,2013-06-23 10:10:00,
2013-06-23 02:15:00,55.6,41.9,29.72,NW,326,0.0,0.0,60,0.00,CLR,,0.00,WeatherDisplay:10.37,2013-06-23 10:15:00,
2013-06-23 02:25:00,55.0,41.0,29.72,NNE,20,0.0,0.0,59,0.00,CLR,,0.00,WeatherDisplay:10.37,2013-06-23 10:25:00,
2013-06-23 02:30:00,54.9,40.4,29.72,NE,45,0.0,0.0,58,0.00,CLR,,0.00,WeatherDisplay:10.37,2013-06-23 10:30:00,
2013-06-23 02:40:00,54.7,39.7,29.72,NE,37,0.0,0.0,57,0.00,CLR,,0.00,WeatherDisplay:10.37,2013-06-23 10:40:00,
2013-06-23 02:45:00,54.7,40.2,29.72,North,7,0.0,0.0,58,0.00,CLR,,0.00,WeatherDisplay:10.37,2013-06-23 10:45:00,
2013-06-23 02:55:00,54.7,40.6,29.72,NNE,14,0.0,0.0,59,0.00,CLR,,0.00,WeatherDisplay:10.37,2013-06-23 10:55:00,
2013-06-23 03:00:00,54.7,40.2,29.72,North,353,0.0,0.0,58,0.00,CLR,,0.00,WeatherDisplay:10.37,2013-06-23 11:00:00,
2013-06-23 03:10:00,53.8,39.8,29.72,West,260,0.0,0.0,59,0.00,CLR,,0.00,WeatherDisplay:10.37,2013-06-23 11:10:00,
2013-06-23 03:15:00,53.7,38.8,29.72,West,270,0.0,0.0,57,0.00,CLR,,0.00,WeatherDisplay:10.37,2013-06-23 11:15:00,
2013-06-23 03:25:00,53.3,38.9,29.72,WNW,297,0.0,0.0,58,0.00,CLR,,0.00,WeatherDisplay:10.37,2013-06-23 11:25:00,
2013-06-23 03:30:00,53.2,38.8,29.73,WNW,299,0.0,0.0,58,0.00,CLR,,0.00,WeatherDisplay:10.37,2013-06-23 11:30:00,
2013-06-23 03:40:00,53.2,38.8,29.73,NW,315,0.0,0.0,58,0.00,CLR,,0.00,WeatherDisplay:10.37,2013-06-23 11:40:00,
2013-06-23 03:45:00,53.2,39.3,29.73,WNW,303,0.0,0.0,59,0.00,CLR,,0.00,WeatherDisplay:10.37,2013-06-23 11:45:00,
2013-06-23 03:55:00,53.2,39.7,29.73,North,1,0.0,0.0,60,0.00,CLR,,0.00,WeatherDisplay:10.37,2013-06-23 11:55:00,
2013-06-23 04:00:00,53.7,40.2,29.73,NNE,14,0.0,0.0,60,0.00,CLR,,0.00,WeatherDisplay:10.37,2013-06-23 12:00:00,
2013-06-23 04:10:00,53.6,40.5,29.73,NW,309,0.0,0.0,61,0.00,CLR,,0.00,WeatherDisplay:10.37,2013-06-23 12:10:00,
2013-06-23 04:15:00,53.3,39.8,29.73,NNE,28,0.0,0.0,60,0.00,CLR,,0.00,WeatherDisplay:10.37,2013-06-23 12:15:00,
2013-06-23 04:25:00,53.2,39.7,29.72,NE,44,0.0,0.0,60,0.00,CLR,,0.00,WeatherDisplay:10.37,2013-06-23 12:25:00,
2013-06-23 04:30:00,53.4,39.9,29.72,NE,40,0.0,0.0,60,0.00,CLR,,0.00,WeatherDisplay:10.37,2013-06-23 12:30:00,
2013-06-23 04:35:00,53.8,39.8,29.72,NNE,32,0.0,0.0,59,0.00,CLR,,0.00,WeatherDisplay:10.37,2013-06-23 12:35:00,
2013-06-23 04:45:00,54.0,40.4,29.72,West,264,0.0,0.0,60,0.00,CLR,,0.00,WeatherDisplay:10.37,2013-06-23 12:45:00,
2013-06-23 04:50:00,53.5,39.5,29.72,WNW,294,0.0,0.0,59,0.00,CLR,,0.00,WeatherDisplay:10.37,2013-06-23 12:50:00,
2013-06-23 04:55:00,53.4,39.9,29.72,NNW,330,0.0,0.0,60,0.00,CLR,,0.00,WeatherDisplay:10.37,2013-06-23 12:55:00,
2013-06-23 05:00:00,53.5,40.8,29.72,NW,326,0.0,0.0,62,0.00,CLR,,0.00,WeatherDisplay:10.37,2013-06-23 13:00:00,
2013-06-23 05:05:00,53.8,40.2,29.72,NW,316,0.0,0.0,60,0.00,CLR,,0.00,WeatherDisplay:10.37,2013-06-23 13:05:00,
2013-06-23 05:15:00,54.7,40.6,29.72,WNW,284,0.0,0.0,59,0.00,CLR,,0.00,WeatherDisplay:10.37,2013-06-23 13:15:00,
2013-06-23 05:25:00,55.0,40.5,29.72,WSW,255,0.0,0.0,58,0.00,CLR,,0.00,WeatherDisplay:10.37,2013-06-23 13:25:00,
2013-06-23 05:30:00,55.5,41.8,29.72,SW,235,0.0,0.0,60,0.00,CLR,,0.00,WeatherDisplay:10.37,2013-06-23 13:30:00,
2013-06-23 05:40:00,55.6,43.2,29.72,North,351,0.0,0.0,63,0.00,CLR,,0.00,WeatherDisplay:10.37,2013-06-23 13:40:00,
2013-06-23 05:50:00,56.1,43.7,29.72,WSW,237,0.0,0.0,63,0.00,CLR,,0.00,WeatherDisplay:10.37,2013-06-23 13:50:00,
2013-06-23 05:55:00,55.6,43.2,29.72,NE,55,0.0,0.0,63,0.00,CLR,,0.00,WeatherDisplay:10.37,2013-06-23 13:55:00,
2013-06-23 06:00:00,55.6,43.2,29.72,NNE,30,0.0,0.0,63,0.00,CLR,,0.00,WeatherDisplay:10.37,2013-06-23 14:00:00,
2013-06-23 06:10:00,56.8,44.4,29.72,NE,42,0.0,0.0,63,0.00,CLR,,0.00,WeatherDisplay:10.37,2013-06-23 14:10:00,
2013-06-23 06:15:00,56.5,44.4,29.72,NE,41,0.0,0.0,64,0.00,CLR,,0.00,WeatherDisplay:10.37,2013-06-23 14:15:00,
2013-06-23 06:25:00,56.3,44.7,29.72,NNE,31,0.0,0.0,65,0.00,CLR,,0.00,WeatherDisplay:10.37,2013-06-23 14:25:00,
2013-06-23 06:30:00,56.5,44.9,29.72,ENE,76,0.0,0.0,65,0.00,CLR,,0.00,WeatherDisplay:10.37,2013-06-23 14:30:00,
2013-06-23 06:40:00,56.5,44.0,29.72,West,266,0.0,0.0,63,0.00,CLR,,0.00,WeatherDisplay:10.37,2013-06-23 14:40:00,
2013-06-23 06:45:00,56.9,44.8,29.72,North,8,0.0,0.0,64,0.00,CLR,,0.00,WeatherDisplay:10.37,2013-06-23 14:45:00,
2013-06-23 06:55:00,59.4,45.9,29.72,NNW,340,0.0,0.0,61,0.00,CLR,,0.00,WeatherDisplay:10.37,2013-06-23 14:55:00,
2013-06-23 07:00:00,59.4,46.7,29.72,SE,144,0.0,0.0,63,0.00,CLR,,0.00,WeatherDisplay:10.37,2013-06-23 15:00:00,
2013-06-23 07:10:00,59.7,47.5,29.72,NNE,32,0.0,0.0,64,0.00,CLR,,0.00,WeatherDisplay:10.37,2013-06-23 15:10:00,
2013-06-23 07:15:00,60.6,48.0,29.72,ENE,75,0.0,0.0,63,0.00,CLR,,0.00,WeatherDisplay:10.37,2013-06-23 15:15:00,
2013-06-23 07:25:00,61.5,48.4,29.72,SSE,161,0.0,0.0,62,0.00,CLR,,0.00,WeatherDisplay:10.37,2013-06-23 15:25:00,
2013-06-23 07:30:00,61.3,48.6,29.72,SSW,195,0.0,0.0,63,0.00,CLR,,0.00,WeatherDisplay:10.37,2013-06-23 15:30:00,
2013-06-23 07:40:00,62.7,49.5,29.72,SW,232,0.0,0.0,62,0.00,CLR,,0.00,WeatherDisplay:10.37,2013-06-23 15:40:00,
2013-06-23 07:45:00,64.2,49.6,29.71,SW,236,0.0,0.0,59,0.00,CLR,,0.00,WeatherDisplay:10.37,2013-06-23 15:45:00,
2013-06-23 07:55:00,65.9,49.3,29.71,WNW,294,0.0,0.0,55,0.00,CLR,,0.00,WeatherDisplay:10.37,2013-06-23 15:55:00,
2013-06-23 08:05:00,69.9,52.0,29.71,NNE,21,0.0,0.0,53,0.00,CLR,,0.00,WeatherDisplay:10.37,2013-06-23 16:05:00,
2013-06-23 08:15:00,72.5,53.3,29.71,ESE,103,0.0,0.0,51,0.00,CLR,,0.00,WeatherDisplay:10.37,2013-06-23 16:15:00,
2013-06-23 08:25:00,73.6,53.8,29.71,SW,224,0.0,0.0,50,0.00,CLR,,0.00,WeatherDisplay:10.37,2013-06-23 16:25:00,
2013-06-23 08:40:00,73.9,54.7,29.71,SW,222,0.0,0.0,51,0.00,CLR,,0.00,WeatherDisplay:10.37,2013-06-23 16:40:00,
2013-06-23 08:45:00,74.1,54.8,29.71,WSW,238,0.0,0.0,51,0.00,CLR,,0.00,WeatherDisplay:10.37,2013-06-23 16:45:00,
2013-06-23 08:55:00,74.8,54.4,29.70,SW,221,0.0,0.0,49,0.00,CLR,,0.00,WeatherDisplay:10.37,2013-06-23 16:55:00,
2013-06-23 09:00:00,75.4,55.4,29.70,SW,234,0.0,0.0,50,0.00,CLR,,0.00,WeatherDisplay:10.37,2013-06-23 17:00:00,
2013-06-23 09:05:00,75.7,55.8,29.70,SW,219,0.0,0.0,50,0.00,CLR,,0.00,WeatherDisplay:10.37,2013-06-23 17:05:00,
2013-06-23 09:10:00,75.5,55.0,29.70,SSW,205,0.0,0.0,49,0.00,CLR,,0.00,WeatherDisplay:10.37,2013-06-23 17:10:00,
2013-06-23 09:15:00,75.7,54.7,29.70,SW,234,0.0,0.0,48,0.00,CLR,,0.00,WeatherDisplay:10.37,2013-06-23 17:15:00,
2013-06-23 09:25:00,76.6,56.0,29.70,SW,221,0.0,0.0,49,0.00,CLR,,0.00,WeatherDisplay:10.37,2013-06-23 17:25:00,
2013-06-23 09:30:00,76.8,55.6,29.70,SW,222,0.0,0.0,48,0.00,CLR,,0.00,WeatherDisplay:10.37,2013-06-23 17:30:00,
2013-06-23 09:40:00,76.9,55.1,29.70,SSW,207,0.0,0.0,47,0.00,CLR,,0.00,WeatherDisplay:10.37,2013-06-23 17:40:00,
2013-06-23 09:45:00,77.1,54.1,29.70,SW,218,0.0,0.0,45,0.00,CLR,,0.00,WeatherDisplay:10.37,2013-06-23 17:45:00,
2013-06-23 09:50:00,77.7,55.3,29.70,SW,226,0.0,0.0,46,0.00,CLR,,0.00,WeatherDisplay:10.37,2013-06-23 17:50:00,
2013-06-23 09:55:00,78.4,55.9,29.70,SSW,213,0.0,0.0,46,0.00,CLR,,0.00,WeatherDisplay:10.37,2013-06-23 17:55:00,
2013-06-23 10:00:00,79.0,55.8,29.70,SSW,204,0.0,0.0,45,0.00,CLR,,0.00,WeatherDisplay:10.37,2013-06-23 18:00:00,
2013-06-23 10:05:00,79.5,55.7,29.70,SSW,196,0.0,0.0,44,0.00,CLR,,0.00,WeatherDisplay:10.37,2013-06-23 18:05:00,
2013-06-23 10:10:00,79.7,53.9,29.70,SSW,195,0.0,0.0,41,0.00,CLR,,0.00,WeatherDisplay:10.37,2013-06-23 18:10:00,
2013-06-23 10:15:00,80.3,55.1,29.70,SW,228,0.0,0.0,42,0.00,CLR,,0.00,WeatherDisplay:10.37,2013-06-23 18:15:00,
2013-06-23 10:25:00,81.5,56.8,29.69,West,273,0.0,0.0,43,0.00,CLR,,0.00,WeatherDisplay:10.37,2013-06-23 18:25:00,
2013-06-23 10:30:00,81.7,56.4,29.69,WNW,287,0.0,0.0,42,0.00,CLR,,0.00,WeatherDisplay:10.37,2013-06-23 18:30:00,
2013-06-23 10:35:00,81.3,56.0,29.69,SW,228,0.0,0.0,42,0.00,CLR,,0.00,WeatherDisplay:10.37,2013-06-23 18:35:00,
2013-06-23 10:45:00,81.3,55.4,29.69,SW,230,0.0,0.0,41,0.00,CLR,,0.00,WeatherDisplay:10.37,2013-06-23 18:45:00,
2013-06-23 10:55:00,81.0,54.4,29.68,SW,227,0.0,0.0,40,0.00,CLR,,0.00,WeatherDisplay:10.37,2013-06-23 18:55:00,
2013-06-23 11:00:00,81.1,55.9,29.68,SW,235,0.0,0.0,42,0.00,CLR,,0.00,WeatherDisplay:10.37,2013-06-23 19:00:00,
2013-06-23 11:05:00,81.3,56.0,29.68,WSW,237,0.0,0.0,42,0.00,CLR,,0.00,WeatherDisplay:10.37,2013-06-23 19:05:00,
2013-06-23 11:15:00,82.1,56.8,29.68,SW,227,0.0,0.0,42,0.00,CLR,,0.00,WeatherDisplay:10.37,2013-06-23 19:15:00,
2013-06-23 11:20:00,82.2,56.2,29.68,SW,217,0.0,0.0,41,0.00,CLR,,0.00,WeatherDisplay:10.37,2013-06-23 19:20:00,
2013-06-23 11:25:00,82.6,56.5,29.68,SSW,208,0.0,0.0,41,0.00,CLR,,0.00,WeatherDisplay:10.37,2013-06-23 19:25:00,
2013-06-23 11:30:00,82.8,56.0,29.68,South,179,0.0,0.0,40,0.00,CLR,,0.00,WeatherDisplay:10.37,2013-06-23 19:30:00,
2013-06-23 11:40:00,82.7,55.2,29.68,SSE,150,0.0,0.0,39,0.00,CLR,,0.00,WeatherDisplay:10.37,2013-06-23 19:40:00,
2013-06-23 11:45:00,82.9,54.7,29.68,South,169,0.0,0.0,38,0.00,CLR,,0.00,WeatherDisplay:10.37,2013-06-23 19:45:00,
2013-06-23 11:55:00,84.2,55.9,29.67,ESE,123,0.0,0.0,38,0.00,CLR,,0.00,WeatherDisplay:10.37,2013-06-23 19:55:00,
2013-06-23 12:00:00,85.0,58.0,29.67,SE,130,0.0,0.0,40,0.00,CLR,,0.00,WeatherDisplay:10.37,2013-06-23 20:00:00,
2013-06-23 12:10:00,85.4,56.9,29.67,South,181,0.0,0.0,38,0.00,CLR,,0.00,WeatherDisplay:10.37,2013-06-23 20:10:00,
2013-06-23 12:15:00,85.5,57.0,29.67,South,183,0.0,0.0,38,0.00,CLR,,0.00,WeatherDisplay:10.37,2013-06-23 20:15:00,
2013-06-23 12:25:00,85.3,55.3,29.67,East,97,0.0,0.0,36,0.00,CLR,,0.00,WeatherDisplay:10.37,2013-06-23 20:25:00,
2013-06-23 12:30:00,85.1,54.4,29.66,ENE,72,0.0,0.0,35,0.00,CLR,,0.00,WeatherDisplay:10.37,2013-06-23 20:30:00,
2013-06-23 12:40:00,85.7,55.6,29.66,South,179,0.0,0.0,36,0.00,CLR,,0.00,WeatherDisplay:10.37,2013-06-23 20:40:00,
2013-06-23 12:45:00,86.2,56.8,29.66,SSW,201,0.0,0.0,37,0.00,CLR,,0.00,WeatherDisplay:10.37,2013-06-23 20:45:00,
2013-06-23 12:55:00,86.3,56.9,29.66,South,181,2.0,0.0,37,0.00,CLR,,0.00,WeatherDisplay:10.37,2013-06-23 20:55:00,
2013-06-23 13:00:00,86.4,56.3,29.66,ESE,116,0.0,0.0,36,0.00,CLR,,0.00,WeatherDisplay:10.37,2013-06-23 21:00:00,
2013-06-23 13:10:00,87.4,55.6,29.66,North,350,3.0,0.0,34,0.00,CLR,,0.00,WeatherDisplay:10.37,2013-06-23 21:10:00,
2013-06-23 13:15:00,87.3,53.8,29.66,ENE,73,2.0,0.0,32,0.00,CLR,,0.00,WeatherDisplay:10.37,2013-06-23 21:15:00,
2013-06-23 13:25:00,87.5,52.2,29.66,East,90,2.0,0.0,30,0.00,CLR,,0.00,WeatherDisplay:10.37,2013-06-23 21:25:00,
2013-06-23 13:30:00,88.0,53.6,29.65,SE,139,0.0,0.0,31,0.00,CLR,,0.00,WeatherDisplay:10.37,2013-06-23 21:30:00,
2013-06-23 13:40:00,88.4,53.9,29.65,ESE,117,0.0,0.0,31,0.00,CLR,,0.00,WeatherDisplay:10.37,2013-06-23 21:40:00,
2013-06-23 13:45:00,88.5,54.0,29.65,ENE,75,0.0,0.0,31,0.00,CLR,,0.00,WeatherDisplay:10.37,2013-06-23 21:45:00,
2013-06-23 13:50:00,88.5,54.0,29.65,NE,35,0.0,0.0,31,0.00,CLR,,0.00,WeatherDisplay:10.37,2013-06-23 21:50:00,
2013-06-23 13:55:00,89.3,54.7,29.66,East,90,0.0,0.0,31,0.00,CLR,,0.00,WeatherDisplay:10.37,2013-06-23 21:55:00,
2013-06-23 14:00:00,90.3,53.7,29.66,NW,316,3.0,0.0,29,0.00,CLR,,0.00,WeatherDisplay:10.37,2013-06-23 22:00:00,
2013-06-23 14:10:00,87.7,52.4,29.65,NW,311,3.0,0.0,30,0.00,CLR,,0.00,WeatherDisplay:10.37,2013-06-23 22:10:00,
2013-06-23 14:15:00,87.4,52.2,29.65,NW,315,2.0,0.0,30,0.00,CLR,,0.00,WeatherDisplay:10.37,2013-06-23 22:15:00,
2013-06-23 14:20:00,88.0,53.6,29.65,WNW,294,1.0,0.0,31,0.00,CLR,,0.00,WeatherDisplay:10.37,2013-06-23 22:20:00,
2013-06-23 14:25:00,87.3,52.1,29.65,NW,315,3.0,0.0,30,0.00,CLR,,0.00,WeatherDisplay:10.37,2013-06-23 22:25:00,
2013-06-23 14:30:00,83.6,49.8,29.65,North,350,1.0,0.0,31,0.00,CLR,,0.00,WeatherDisplay:10.37,2013-06-23 22:30:00,
2013-06-23 14:40:00,84.1,51.1,29.64,WNW,294,0.0,0.0,32,0.00,CLR,,0.00,WeatherDisplay:10.37,2013-06-23 22:40:00,
2013-06-23 14:45:00,85.8,51.6,29.64,North,4,0.0,0.0,31,0.00,CLR,,0.00,WeatherDisplay:10.37,2013-06-23 22:45:00,
2013-06-23 14:55:00,87.3,52.1,29.64,NW,323,2.0,0.0,30,0.00,CLR,,0.00,WeatherDisplay:10.37,2013-06-23 22:55:00,
2013-06-23 15:00:00,86.8,51.7,29.64,NNW,345,0.0,0.0,30,0.00,CLR,,0.00,WeatherDisplay:10.37,2013-06-23 23:00:00,
2013-06-23 15:10:00,88.3,51.1,29.64,NW,323,2.0,0.0,28,0.00,CLR,,0.00,WeatherDisplay:10.37,2013-06-23 23:10:00,
2013-06-23 15:15:00,87.5,51.3,29.64,WNW,290,0.0,0.0,29,0.00,CLR,,0.00,WeatherDisplay:10.37,2013-06-23 23:15:00,
2013-06-23 15:25:00,87.8,52.5,29.64,NW,309,1.0,0.0,30,0.00,CLR,,0.00,WeatherDisplay:10.37,2013-06-23 23:25:00,
2013-06-23 15:30:00,87.6,52.4,29.64,NW,308,0.0,0.0,30,0.00,CLR,,0.00,WeatherDisplay:10.37,2013-06-23 23:30:00,
2013-06-23 15:40:00,88.1,51.8,29.63,NNW,338,0.0,0.0,29,0.00,CLR,,0.00,WeatherDisplay:10.37,2013-06-23 23:40:00,
2013-06-23 15:45:00,88.4,52.1,29.63,North,358,0.0,0.0,29,0.00,CLR,,0.00,WeatherDisplay:10.37,2013-06-23 23:45:00,
2013-06-23 15:50:00,89.0,53.6,29.63,ESE,112,0.0,0.0,30,0.00,CLR,,0.00,WeatherDisplay:10.37,2013-06-23 23:50:00,
2013-06-23 15:55:00,89.6,52.1,29.63,NE,45,0.0,0.0,28,0.00,CLR,,0.00,WeatherDisplay:10.37,2013-06-23 23:55:00,
2013-06-23 16:00:00,90.1,52.6,29.63,NE,52,1.0,0.0,28,0.00,CLR,,0.00,WeatherDisplay:10.37,2013-06-24 00:00:00,
2013-06-23 16:05:00,90.0,52.5,29.63,ENE,66,2.0,0.0,28,0.00,CLR,,0.00,WeatherDisplay:10.37,2013-06-24 00:05:00,
2013-06-23 16:10:00,89.1,50.8,29.63,NE,40,1.0,0.0,27,0.00,CLR,,0.00,WeatherDisplay:10.37,2013-06-24 00:10:00,
2013-06-23 16:15:00,88.8,50.6,29.63,NE,47,0.0,0.0,27,0.00,CLR,,0.00,WeatherDisplay:10.37,2013-06-24 00:15:00,
2013-06-23 16:25:00,88.8,49.5,29.62,SW,234,0.0,0.0,26,0.00,CLR,,0.00,WeatherDisplay:10.37,2013-06-24 00:25:00,
2013-06-23 16:30:00,89.8,52.3,29.62,WSW,239,0.0,0.0,28,0.00,CLR,,0.00,WeatherDisplay:10.37,2013-06-24 00:30:00,
2013-06-23 16:40:00,90.3,51.8,29.62,WSW,244,0.0,0.0,27,0.00,CLR,,0.00,WeatherDisplay:10.37,2013-06-24 00:40:00,
2013-06-23 16:45:00,91.0,52.4,29.62,South,185,0.0,0.0,27,0.00,CLR,,0.00,WeatherDisplay:10.37,2013-06-24 00:45:00,
2013-06-23 16:55:00,91.1,53.4,29.62,ENE,75,1.0,0.0,28,0.00,CLR,,0.00,WeatherDisplay:10.37,2013-06-24 00:55:00,
2013-06-23 17:00:00,91.6,52.9,29.62,ENE,76,2.0,0.0,27,0.00,CLR,,0.00,WeatherDisplay:10.37,2013-06-24 01:00:00,
2013-06-23 17:10:00,89.3,49.9,29.62,NE,40,0.0,0.0,26,0.00,CLR,,0.00,WeatherDisplay:10.37,2013-06-24 01:10:00,
2013-06-23 17:15:00,89.0,48.6,29.62,SE,134,0.0,0.0,25,0.00,CLR,,0.00,WeatherDisplay:10.37,2013-06-24 01:15:00,
2013-06-23 17:25:00,91.4,51.7,29.61,NE,43,0.0,0.0,26,0.00,CLR,,0.00,WeatherDisplay:10.37,2013-06-24 01:25:00,
2013-06-23 17:30:00,91.3,51.6,29.62,North,359,0.0,0.0,26,0.00,CLR,,0.00,WeatherDisplay:10.37,2013-06-24 01:30:00,
2013-06-23 17:35:00,91.0,51.4,29.61,North,356,0.0,0.0,26,0.00,CLR,,0.00,WeatherDisplay:10.37,2013-06-24 01:35:00,
2013-06-23 17:40:00,91.3,51.6,29.61,NNW,344,0.0,0.0,26,0.00,CLR,,0.00,WeatherDisplay:10.37,2013-06-24 01:40:00,
2013-06-23 17:45:00,92.3,52.5,29.61,WSW,257,2.0,0.0,26,0.00,CLR,,0.00,WeatherDisplay:10.37,2013-06-24 01:45:00,
2013-06-23 17:55:00,93.0,53.1,29.61,NNE,30,2.0,0.0,26,0.00,CLR,,0.00,WeatherDisplay:10.37,2013-06-24 01:55:00,
2013-06-23 18:00:00,92.6,53.7,29.61,NNE,24,2.0,0.0,27,0.00,CLR,,0.00,WeatherDisplay:10.37,2013-06-24 02:00:00,
2013-06-23 18:05:00,92.2,53.4,29.61,NE,56,2.0,0.0,27,0.00,CLR,,0.00,WeatherDisplay:10.37,2013-06-24 02:05:00,
2013-06-23 18:10:00,91.9,52.1,29.61,ENE,71,1.0,0.0,26,0.00,CLR,,0.00,WeatherDisplay:10.37,2013-06-24 02:10:00,
2013-06-23 18:15:00,91.0,51.3,29.61,ENE,63,2.0,0.0,26,0.00,CLR,,0.00,WeatherDisplay:10.37,2013-06-24 02:15:00,
2013-06-23 18:25:00,87.5,49.4,29.61,ENE,71,0.0,0.0,27,0.00,CLR,,0.00,WeatherDisplay:10.37,2013-06-24 02:25:00,
2013-06-23 18:30:00,85.8,46.9,29.61,NE,45,0.0,0.0,26,0.00,CLR,,0.00,WeatherDisplay:10.37,2013-06-24 02:30:00,
2013-06-23 18:40:00,80.9,46.5,29.61,NNE,28,0.0,0.0,30,0.00,CLR,,0.00,WeatherDisplay:10.37,2013-06-24 02:40:00,
2013-06-23 18:45:00,79.7,46.4,29.61,NNE,29,0.0,0.0,31,0.00,CLR,,0.00,WeatherDisplay:10.37,2013-06-24 02:45:00,
2013-06-23 18:50:00,79.4,44.3,29.61,NE,38,1.0,0.0,29,0.00,CLR,,0.00,WeatherDisplay:10.37,2013-06-24 02:50:00,
2013-06-23 18:55:00,78.3,45.2,29.60,NE,51,2.0,0.0,31,0.00,CLR,,0.00,WeatherDisplay:10.37,2013-06-24 02:55:00,
2013-06-23 19:00:00,77.0,44.0,29.61,NNE,33,1.0,0.0,31,0.00,CLR,,0.00,WeatherDisplay:10.37,2013-06-24 03:00:00,
2013-06-23 19:10:00,75.7,45.4,29.60,NNW,339,1.0,0.0,34,0.00,CLR,,0.00,WeatherDisplay:10.37,2013-06-24 03:10:00,
2013-06-23 19:15:00,75.4,45.8,29.60,WNW,300,0.0,0.0,35,0.00,CLR,,0.00,WeatherDisplay:10.37,2013-06-24 03:15:00,
2013-06-23 19:25:00,75.7,43.8,29.61,NE,45,0.0,0.0,32,0.00,CLR,,0.00,WeatherDisplay:10.37,2013-06-24 03:25:00,
2013-06-23 19:30:00,75.9,43.9,29.61,SSE,151,0.0,0.0,32,0.00,CLR,,0.00,WeatherDisplay:10.37,2013-06-24 03:30:00,
2013-06-23 19:40:00,76.8,44.7,29.61,East,83,0.0,0.0,32,0.00,CLR,,0.00,WeatherDisplay:10.37,2013-06-24 03:40:00,
2013-06-23 19:45:00,77.8,45.5,29.61,NNE,13,0.0,0.0,32,0.00,CLR,,0.00,WeatherDisplay:10.37,2013-06-24 03:45:00,
2013-06-23 19:55:00,78.4,45.3,29.61,NNW,347,1.0,0.0,31,0.00,CLR,,0.00,WeatherDisplay:10.37,2013-06-24 03:55:00,
2013-06-23 20:00:00,77.9,45.7,29.61,ENE,73,0.0,0.0,32,0.00,CLR,,0.00,WeatherDisplay:10.37,2013-06-24 04:00:00,
2013-06-23 20:05:00,77.7,44.7,29.61,ESE,103,0.0,0.0,31,0.00,CLR,,0.00,WeatherDisplay:10.37,2013-06-24 04:05:00,
2013-06-23 20:10:00,77.5,45.3,29.61,NNE,28,1.0,0.0,32,0.00,CLR,,0.00,WeatherDisplay:10.37,2013-06-24 04:10:00,
2013-06-23 20:15:00,77.5,46.9,29.61,North,356,0.0,0.0,34,0.00,CLR,,0.00,WeatherDisplay:10.37,2013-06-24 04:15:00,
2013-06-23 20:20:00,77.2,47.4,29.62,North,5,3.0,0.0,35,0.00,CLR,,0.00,WeatherDisplay:10.37,2013-06-24 04:20:00,
2013-06-23 20:25:00,77.2,48.2,29.62,North,355,1.0,0.0,36,0.00,CLR,,0.00,WeatherDisplay:10.37,2013-06-24 04:25:00,
2013-06-23 20:30:00,77.1,48.1,29.62,NNW,347,0.0,0.0,36,0.00,CLR,,0.00,WeatherDisplay:10.37,2013-06-24 04:30:00,
2013-06-23 20:35:00,76.5,48.3,29.62,NNE,16,2.0,0.0,37,0.00,CLR,,0.00,WeatherDisplay:10.37,2013-06-24 04:35:00,
2013-06-23 20:40:00,75.4,48.0,29.62,NNE,27,0.0,0.0,38,0.00,CLR,,0.00,WeatherDisplay:10.37,2013-06-24 04:40:00,
2013-06-23 20:45:00,74.8,47.5,29.62,NE,41,3.0,0.0,38,0.00,CLR,,0.00,WeatherDisplay:10.37,2013-06-24 04:45:00,
2013-06-23 20:55:00,73.9,47.3,29.62,NE,40,0.0,0.0,39,0.00,CLR,,0.00,WeatherDisplay:10.37,2013-06-24 04:55:00,
2013-06-23 21:00:00,73.3,46.9,29.62,NE,42,0.0,0.0,39,0.00,CLR,,0.00,WeatherDisplay:10.37,2013-06-24 05:00:00,
2013-06-23 21:05:00,72.9,46.5,29.62,NE,42,3.0,0.0,39,0.00,CLR,,0.00,WeatherDisplay:10.37,2013-06-24 05:05:00,
2013-06-23 21:10:00,72.5,46.8,29.62,NE,35,1.0,0.0,40,0.00,CLR,,0.00,WeatherDisplay:10.37,2013-06-24 05:10:00,
2013-06-23 21:15:00,72.3,46.6,29.62,NE,42,0.0,0.0,40,0.00,CLR,,0.00,WeatherDisplay:10.37,2013-06-24 05:15:00,
2013-06-23 21:20:00,72.3,46.6,29.62,NNE,33,0.0,0.0,40,0.00,CLR,,0.00,WeatherDisplay:10.37,2013-06-24 05:20:00,
2013-06-23 21:25:00,72.3,46.6,29.62,NNE,23,0.0,0.0,40,0.00,CLR,,0.00,WeatherDisplay:10.37,2013-06-24 05:25:00,
2013-06-23 21:30:00,72.1,46.5,29.62,NNE,18,1.0,0.0,40,0.00,CLR,,0.00,WeatherDisplay:10.37,2013-06-24 05:30:00,
2013-06-23 21:40:00,72.3,46.6,29.62,NNE,31,0.0,0.0,40,0.00,CLR,,0.00,WeatherDisplay:10.37,2013-06-24 05:40:00,
2013-06-23 21:50:00,72.1,46.5,29.62,NNE,31,2.0,0.0,40,0.00,CLR,,0.00,WeatherDisplay:10.37,2013-06-24 05:50:00,
2013-06-23 21:55:00,72.2,46.5,29.62,NNE,22,1.0,0.0,40,0.00,CLR,,0.00,WeatherDisplay:10.37,2013-06-24 05:55:00,
2013-06-23 22:00:00,72.5,46.1,29.62,NNE,24,2.0,0.0,39,0.00,CLR,,0.00,WeatherDisplay:10.37,2013-06-24 06:00:00,
2013-06-23 22:10:00,71.7,46.1,29.62,NNE,28,1.0,0.0,40,0.00,CLR,,0.00,WeatherDisplay:10.37,2013-06-24 06:10:00,
2013-06-23 22:15:00,71.1,45.6,29.62,NNE,18,1.0,0.0,40,0.00,CLR,,0.00,WeatherDisplay:10.37,2013-06-24 06:15:00,
2013-06-23 22:20:00,70.9,44.7,29.62,NE,42,0.0,0.0,39,0.00,CLR,,0.00,WeatherDisplay:10.37,2013-06-24 06:20:00,
2013-06-23 22:25:00,70.4,45.0,29.62,NE,46,0.0,0.0,40,0.00,CLR,,0.00,WeatherDisplay:10.37,2013-06-24 06:25:00,
2013-06-23 22:30:00,70.1,44.6,29.63,NE,36,0.0,0.0,40,0.00,CLR,,0.00,WeatherDisplay:10.37,2013-06-24 06:30:00,
2013-06-23 22:45:00,69.3,45.2,29.63,NE,35,0.0,0.0,42,0.00,CLR,,0.00,WeatherDisplay:10.37,2013-06-24 06:45:00,
2013-06-23 22:55:00,68.7,44.7,29.63,NNE,25,0.0,0.0,42,0.00,CLR,,0.00,WeatherDisplay:10.37,2013-06-24 06:55:00,
2013-06-23 23:00:00,68.6,44.0,29.63,NNE,29,1.0,0.0,41,0.00,CLR,,0.00,WeatherDisplay:10.37,2013-06-24 07:00:00,
2013-06-23 23:10:00,68.2,44.2,29.63,NE,51,0.0,0.0,42,0.00,CLR,,0.00,WeatherDisplay:10.37,2013-06-24 07:10:00,
2013-06-23 23:20:00,68.2,43.6,29.63,NNE,32,0.0,0.0,41,0.00,CLR,,0.00,WeatherDisplay:10.37,2013-06-24 07:20:00,
2013-06-23 23:25:00,68.4,43.7,29.63,NNE,14,0.0,0.0,41,0.00,CLR,,0.00,WeatherDisplay:10.37,2013-06-24 07:25:00,
2013-06-23 23:35:00,68.5,43.2,29.63,NE,53,0.0,0.0,40,0.00,CLR,,0.00,WeatherDisplay:10.37,2013-06-24 07:35:00,
2013-06-23 23:40:00,68.5,43.2,29.63,NNE,14,0.0,0.0,40,0.00,CLR,,0.00,WeatherDisplay:10.37,2013-06-24 07:40:00,
2013-06-23 23:45:00,68.5,43.2,29.63,North,354,0.0,0.0,40,0.00,CLR,,0.00,WeatherDisplay:10.37,2013-06-24 07:45:00,
2013-06-23 23:50:00,68.5,43.2,29.64,ENE,61,0.0,0.0,40,0.00,CLR,,0.00,WeatherDisplay:10.37,2013-06-24 07:50:00,
2013-06-23 23:55:00,68.2,43.6,29.63,NE,45,0.0,0.0,41,0.00,CLR,,0.00,WeatherDisplay:10.37,2013-06-24 07:55:00,